sat.trackr.live / text

‹ back to catalog

STARLINK-11392 [DTC]

NORAD 63056 · 2025-035E

PAYLOAD ACTIVE UNKNOWN

§ Identity

Operator
Country
US
Launch date
2025-02-21
Launch site
AFETR
Launch vehicle
Mass (kg)
RCS (m²)

Purposes: comms

External: N2YO · Heavens-Above · Gunter

§ Orbital elements

Epoch: 2026-09-20T08:19:20.345664Z

Period
91.67 min
Inclination
42.9986°
Eccentricity
0.0000727
Mean motion
15.70857082 rev/d
Perigee alt
356.0 km
Apogee alt
356.9 km
Semi-major
6,734.6 km
B*
1.1046e-3
RAAN
282.1685°
Arg perigee
248.9130°
Mean anomaly
111.1660°
Rev number
9,183

§ Raw data

STARLINK-11392 [DTC]1 63056U 25035E   26263.34676326  .00143862  00000+0  11046-2 0  99982 63056  42.9986 282.1685 0000727 248.9130 111.1660 15.70857082 91835

JSON: /api/v1/satellites/63056 · /tle

For live sub-satellite position, see the globe view (requires WebGL).

§ Visibility from observer

Set your observer location to see the next 7 days of passes ≥ 10°. The values pass through the URL so the page stays shareable.

No JS? Fill the form by hand. The geolocation button needs JavaScript.